BAW14GM LIMC-EGLL

Flight info

Callsign BAW14GM
Flight time 1h 12m
Altitude 34000
Route DOGUB6TXAOSTA5W/35R AOSTA DCT ORSUD DCT MOLUS DCT IBODI DCT GOTED DCT TRO DCT CLM DCT KOPOR DCT ABNUR DCT DIMAL DCT ALESO ALESO1H
Aircraft A21N/M-SDE3FGHIRWY/LB1

Departure

Time 2026-05-05 21:30
Airport Milan Malpensa International Airport (LIMC)

Arrival

Time 2026-05-05 22:42
Airport London Heathrow Airport (EGLL)
Time Latitude Longitude Altitude Speed Heading
2026-05-05 19:43 45.62696 8.71632 744 ft 0 kts 349°
2026-05-05 20:52 45.62696 8.71633 744 ft 0 kts 349°
2026-05-05 20:59 45.62691 8.71633 744 ft 1 kts 351°
2026-05-05 20:59 45.62680 8.71636 744 ft 1 kts 353°
2026-05-05 20:59 45.62670 8.71636 744 ft 1 kts 358°
2026-05-05 20:59 45.62649 8.71633 744 ft 4 kts
2026-05-05 21:00 45.62626 8.71620 745 ft 3 kts 45°
2026-05-05 21:00 45.62622 8.71610 745 ft 0 kts 82°
2026-05-05 21:04 45.62624 8.71624 744 ft 3 kts 82°
2026-05-05 21:04 45.62631 8.71692 743 ft 9 kts 80°
2026-05-05 21:05 45.62641 8.71767 742 ft 9 kts 80°
2026-05-05 21:05 45.62655 8.71873 739 ft 12 kts 79°
2026-05-05 21:05 45.62664 8.72007 737 ft 14 kts 119°
2026-05-05 21:05 45.62573 8.72056 736 ft 14 kts 169°
2026-05-05 21:06 45.62476 8.72084 735 ft 14 kts 169°
2026-05-05 21:06 45.62376 8.72110 735 ft 15 kts 168°
2026-05-05 21:06 45.62268 8.72139 733 ft 16 kts 168°
2026-05-05 21:06 45.62153 8.72172 730 ft 17 kts 169°
2026-05-05 21:07 45.62031 8.72205 727 ft 18 kts 169°
2026-05-05 21:07 45.61924 8.72236 723 ft 11 kts 169°
2026-05-05 21:07 45.61879 8.72248 721 ft 1 kts 169°
2026-05-05 21:07 45.61853 8.72255 720 ft 7 kts 170°
2026-05-05 21:08 45.61780 8.72272 717 ft 11 kts 169°
2026-05-05 21:08 45.61691 8.72300 715 ft 14 kts 167°
2026-05-05 21:08 45.61588 8.72329 713 ft 15 kts 169°
2026-05-05 21:08 45.61477 8.72359 709 ft 17 kts 169°
2026-05-05 21:09 45.61388 8.72302 707 ft 16 kts 256°
2026-05-05 21:09 45.61330 8.72203 707 ft 14 kts 185°
2026-05-05 21:09 45.61225 8.72230 702 ft 16 kts 169°
2026-05-05 21:09 45.61107 8.72261 698 ft 17 kts 168°
2026-05-05 21:10 45.60995 8.72293 694 ft 14 kts 169°
2026-05-05 21:10 45.60892 8.72321 692 ft 15 kts 169°
2026-05-05 21:10 45.60778 8.72350 691 ft 16 kts 170°
2026-05-05 21:10 45.60674 8.72397 691 ft 14 kts 140°
2026-05-05 21:11 45.60633 8.72536 691 ft 16 kts 96°
2026-05-05 21:11 45.60625 8.72662 691 ft 13 kts 95°
2026-05-05 21:11 45.60614 8.72816 692 ft 16 kts 96°
2026-05-05 21:11 45.60603 8.72975 691 ft 17 kts 97°
2026-05-05 21:12 45.60590 8.73139 691 ft 17 kts 94°
2026-05-05 21:12 45.60639 8.73280 689 ft 16 kts 28°
2026-05-05 21:12 45.60749 8.73347 686 ft 17 kts 22°
2026-05-05 21:12 45.60860 8.73411 684 ft 16 kts 19°
2026-05-05 21:13 45.60961 8.73399 684 ft 9 kts 349°
2026-05-05 21:13 45.61006 8.73388 685 ft 0 kts 350°
2026-05-05 21:14 45.61021 8.73384 685 ft 4 kts 350°
2026-05-05 21:14 45.61078 8.73368 686 ft 9 kts 348°
2026-05-05 21:15 45.61150 8.73348 687 ft 11 kts 349°
2026-05-05 21:15 45.61228 8.73329 689 ft 11 kts 349°
2026-05-05 21:15 45.61309 8.73303 691 ft 12 kts 348°
2026-05-05 21:15 45.61322 8.73299 691 ft 0 kts 348°
2026-05-05 21:17 45.61356 8.73290 692 ft 8 kts 351°
2026-05-05 21:18 45.61422 8.73273 694 ft 10 kts 348°
2026-05-05 21:18 45.61495 8.73251 696 ft 11 kts 348°
2026-05-05 21:18 45.61574 8.73229 698 ft 12 kts 349°
2026-05-05 21:18 45.61619 8.73279 698 ft 11 kts 76°
2026-05-05 21:19 45.61626 8.73336 697 ft 0 kts 80°
2026-05-05 21:19 45.61627 8.73336 697 ft 0 kts 80°
2026-05-05 21:21 45.61627 8.73337 697 ft 0 kts 80°
2026-05-05 21:21 45.61628 8.73345 697 ft 2 kts 80°
2026-05-05 21:21 45.61632 8.73376 697 ft 3 kts 80°
2026-05-05 21:21 45.61636 8.73414 697 ft 4 kts 86°
2026-05-05 21:22 45.61628 8.73457 697 ft 5 kts 116°
2026-05-05 21:22 45.61615 8.73485 696 ft 0 kts 123°
2026-05-05 21:23 45.61595 8.73534 696 ft 9 kts 116°
2026-05-05 21:24 45.61586 8.73587 696 ft 0 kts 91°
2026-05-05 21:28 45.61586 8.73590 696 ft 3 kts 91°
2026-05-05 21:28 45.61590 8.73714 697 ft 13 kts 83°
2026-05-05 21:29 45.61623 8.73746 698 ft 0 kts 349°
2026-05-05 21:29 45.61751 8.73710 700 ft 55 kts 349°
2026-05-05 21:29 45.62389 8.73532 713 ft 128 kts 349°
2026-05-05 21:30 45.63463 8.73231 779 ft 180 kts 349°
2026-05-05 21:30 45.64693 8.72877 1509 ft 182 kts 350°
2026-05-05 21:30 45.65926 8.72738 2428 ft 179 kts
2026-05-05 21:30 45.67189 8.72742 3078 ft 191 kts
2026-05-05 21:31 45.68559 8.72704 3605 ft 205 kts
2026-05-05 21:31 45.70046 8.72645 4045 ft 222 kts 359°
2026-05-05 21:31 45.71654 8.72461 4422 ft 244 kts 345°
2026-05-05 21:31 45.73104 8.71180 5018 ft 255 kts 308°
2026-05-05 21:32 45.73785 8.68886 5756 ft 257 kts 273°
2026-05-05 21:32 45.73464 8.66434 6531 ft 256 kts 244°
2026-05-05 21:32 45.72710 8.64164 7357 ft 257 kts 244°
2026-05-05 21:32 45.71970 8.61823 8112 ft 260 kts 244°
2026-05-05 21:33 45.71150 8.59533 8830 ft 263 kts 238°
2026-05-05 21:33 45.70183 8.57267 9378 ft 274 kts 237°
2026-05-05 21:33 45.69163 8.54949 10013 ft 280 kts 236°
2026-05-05 21:33 45.68115 8.52567 10622 ft 288 kts 236°
2026-05-05 21:34 45.67012 8.50087 10961 ft 305 kts 236°
2026-05-05 21:34 45.65848 8.47479 11276 ft 322 kts 236°
2026-05-05 21:34 45.64609 8.44701 11508 ft 338 kts 237°
2026-05-05 21:34 45.63291 8.41832 11861 ft 354 kts 234°
2026-05-05 21:35 45.61808 8.38998 12135 ft 369 kts 231°
2026-05-05 21:35 45.60143 8.36086 12387 ft 384 kts 232°
2026-05-05 21:35 45.58890 8.32677 12659 ft 398 kts 250°
2026-05-05 21:35 45.58498 8.28773 13148 ft 404 kts 269°
2026-05-05 21:36 45.58981 8.24844 13814 ft 407 kts 285°
2026-05-05 21:36 45.59890 8.20994 14473 ft 410 kts 286°
2026-05-05 21:36 45.60804 8.17165 15017 ft 413 kts 286°
2026-05-05 21:36 45.61723 8.13281 15588 ft 415 kts 286°
2026-05-05 21:37 45.62643 8.09344 16168 ft 418 kts 285°
2026-05-05 21:37 45.63544 8.05458 16647 ft 420 kts 285°
2026-05-05 21:37 45.64467 8.01465 17213 ft 422 kts 285°
2026-05-05 21:37 45.65380 7.97491 17769 ft 424 kts 285°
2026-05-05 21:38 45.66305 7.93473 18268 ft 427 kts 285°
2026-05-05 21:38 45.67232 7.89436 18752 ft 429 kts 285°
2026-05-05 21:38 45.68153 7.85408 19207 ft 432 kts 285°
2026-05-05 21:38 45.69089 7.81311 19641 ft 435 kts 285°
2026-05-05 21:39 45.70027 7.77193 20052 ft 439 kts 284°
2026-05-05 21:39 45.70966 7.73074 20500 ft 441 kts 284°
2026-05-05 21:39 45.71922 7.68863 20951 ft 444 kts 284°
2026-05-05 21:39 45.72863 7.64708 21306 ft 447 kts 284°
2026-05-05 21:40 45.73830 7.60444 21727 ft 450 kts 284°
2026-05-05 21:40 45.74791 7.56185 22096 ft 453 kts 284°
2026-05-05 21:40 45.75744 7.51939 22457 ft 455 kts 284°
2026-05-05 21:40 45.76721 7.47596 22994 ft 454 kts 284°
2026-05-05 21:41 45.77683 7.43331 23564 ft 452 kts 284°
2026-05-05 21:41 45.78709 7.39128 24066 ft 454 kts 289°
2026-05-05 21:41 45.80302 7.35184 24521 ft 461 kts 302°
2026-05-05 21:41 45.82478 7.31780 25062 ft 466 kts 313°
2026-05-05 21:42 45.85053 7.28957 25624 ft 467 kts 319°
2026-05-05 21:42 45.87676 7.26318 26133 ft 466 kts 320°
2026-05-05 21:42 45.90350 7.23663 26596 ft 464 kts 320°
2026-05-05 21:42 45.92971 7.21033 26970 ft 464 kts 319°
2026-05-05 21:43 45.95609 7.18360 27417 ft 463 kts 319°
2026-05-05 21:43 45.98210 7.15707 27789 ft 462 kts 319°
2026-05-05 21:43 46.00819 7.13040 28210 ft 461 kts 318°
2026-05-05 21:43 46.03430 7.10363 28616 ft 460 kts 318°
2026-05-05 21:44 46.06006 7.07722 29008 ft 458 kts 318°
2026-05-05 21:44 46.08592 7.05064 29399 ft 458 kts 318°
2026-05-05 21:44 46.11169 7.02407 29713 ft 458 kts 318°
2026-05-05 21:44 46.13797 6.99700 30131 ft 457 kts 318°
2026-05-05 21:45 46.16358 6.97058 30451 ft 456 kts 318°
2026-05-05 21:45 46.18926 6.94412 30727 ft 456 kts 318°
2026-05-05 21:45 46.21515 6.91735 31065 ft 454 kts 318°
2026-05-05 21:45 46.24073 6.89083 31331 ft 454 kts 318°
2026-05-05 21:46 46.26611 6.86454 31664 ft 454 kts 319°
2026-05-05 21:46 46.29180 6.83780 31875 ft 454 kts 319°
2026-05-05 21:46 46.31721 6.81156 32051 ft 453 kts 318°
2026-05-05 21:46 46.34282 6.78493 32379 ft 452 kts 318°
2026-05-05 21:47 46.36823 6.75847 32532 ft 453 kts 318°
2026-05-05 21:47 46.39377 6.73175 32792 ft 455 kts 319°
2026-05-05 21:47 46.44359 6.67584 32994 ft 452 kts 313°
2026-05-05 21:48 46.46660 6.64506 33231 ft 450 kts 310°
2026-05-05 21:48 46.48859 6.61266 33334 ft 450 kts 308°
2026-05-05 21:48 46.53186 6.54702 33588 ft 451 kts 308°
2026-05-05 21:49 46.55349 6.51407 33700 ft 452 kts 308°
2026-05-05 21:49 46.57502 6.48120 33802 ft 454 kts 308°
2026-05-05 21:49 46.61843 6.41520 33886 ft 454 kts 308°
2026-05-05 21:50 46.66211 6.34862 33891 ft 454 kts 308°
2026-05-05 21:50 46.70554 6.28223 33879 ft 455 kts 308°
2026-05-05 21:51 46.74914 6.21551 33884 ft 455 kts 308°
2026-05-05 21:51 46.79252 6.14888 33879 ft 456 kts 309°
2026-05-05 21:52 46.85777 6.04842 33879 ft 457 kts 308°
2026-05-05 21:53 46.90166 5.98113 33868 ft 459 kts 310°
2026-05-05 21:53 46.94957 5.91869 33851 ft 463 kts 317°
2026-05-05 21:54 47.00222 5.86432 33857 ft 467 kts 325°
2026-05-05 21:54 47.05887 5.81825 33860 ft 469 kts 329°
2026-05-05 21:55 47.11651 5.77429 33901 ft 468 kts 329°
2026-05-05 21:55 47.17423 5.72994 33899 ft 468 kts 329°
2026-05-05 21:56 47.23174 5.68560 33816 ft 468 kts 329°
2026-05-05 21:56 47.28914 5.64110 33867 ft 468 kts 329°
2026-05-05 21:57 47.34655 5.59646 33875 ft 469 kts 329°
2026-05-05 21:57 47.40415 5.55157 33860 ft 469 kts 330°
2026-05-05 21:58 47.46130 5.50555 33854 ft 468 kts 327°
2026-05-05 21:58 47.51385 5.44994 33861 ft 465 kts 317°
2026-05-05 21:59 47.56003 5.38330 33806 ft 461 kts 309°
2026-05-05 21:59 47.59925 5.30887 33874 ft 459 kts 303°
2026-05-05 22:00 48.22468 4.01898 33863 ft 460 kts 304°
2026-05-05 22:00 48.26436 3.94270 33813 ft 465 kts 310°
2026-05-05 22:01 48.30859 3.87202 33850 ft 466 kts 313°
2026-05-05 22:01 48.77889 3.12078 34071 ft 466 kts 314°
2026-05-05 22:01 48.80143 3.08497 33905 ft 466 kts 315°
2026-05-05 22:02 48.84959 3.01969 33871 ft 465 kts 322°
2026-05-05 22:02 48.90209 2.96362 33850 ft 465 kts 329°
2026-05-05 22:03 48.95783 2.91415 33848 ft 465 kts 332°
2026-05-05 22:03 49.01406 2.86532 33830 ft 465 kts 331°
2026-05-05 22:04 49.06959 2.81675 33838 ft 465 kts 331°
2026-05-05 22:04 49.12594 2.76717 33859 ft 464 kts 331°
2026-05-05 22:05 49.18178 2.71785 33868 ft 464 kts 331°
2026-05-05 22:05 49.23740 2.66859 33819 ft 465 kts 332°
2026-05-05 22:06 49.29319 2.61906 33905 ft 466 kts 331°
2026-05-05 22:06 49.34923 2.56919 33864 ft 466 kts 331°
2026-05-05 22:07 49.40495 2.51944 33860 ft 466 kts 331°
2026-05-05 22:07 49.46102 2.46925 33854 ft 466 kts 331°
2026-05-05 22:08 49.51704 2.41896 33827 ft 466 kts 332°
2026-05-05 22:08 50.14225 1.88143 33886 ft 464 kts 328°
2026-05-05 22:09 50.19389 1.82175 33585 ft 465 kts 321°
2026-05-05 22:09 50.21793 1.78835 33329 ft 463 kts 317°
2026-05-05 22:09 50.24120 1.75334 33062 ft 460 kts 316°
2026-05-05 22:09 50.26361 1.71893 32796 ft 456 kts 316°
2026-05-05 22:10 50.28606 1.68434 32539 ft 455 kts 316°
2026-05-05 22:10 50.30871 1.64946 32277 ft 455 kts 316°
2026-05-05 22:10 50.33120 1.61495 32009 ft 455 kts 316°
2026-05-05 22:10 50.35363 1.58052 31750 ft 456 kts 316°
2026-05-05 22:11 50.37609 1.54601 31471 ft 456 kts 316°
2026-05-05 22:11 50.39870 1.51122 31036 ft 456 kts 316°
2026-05-05 22:11 50.42135 1.47635 30457 ft 457 kts 316°
2026-05-05 22:11 50.44399 1.44148 29757 ft 458 kts 316°
2026-05-05 22:12 50.46635 1.40689 29104 ft 457 kts 317°
2026-05-05 22:12 50.48898 1.37180 28425 ft 458 kts 316°
2026-05-05 22:12 50.51094 1.33565 27737 ft 459 kts 313°
2026-05-05 22:12 50.53257 1.29898 26974 ft 460 kts 313°
2026-05-05 22:13 50.55433 1.26184 26236 ft 461 kts 313°
2026-05-05 22:13 50.57603 1.22518 25468 ft 462 kts 314°
2026-05-05 22:13 50.59837 1.18926 24435 ft 467 kts 315°
2026-05-05 22:13 50.62128 1.15311 23475 ft 470 kts 316°
2026-05-05 22:14 50.64405 1.11729 22894 ft 464 kts 316°
2026-05-05 22:14 50.66697 1.08116 22344 ft 464 kts 316°
2026-05-05 22:14 50.68963 1.04533 21776 ft 460 kts 316°
2026-05-05 22:14 50.71180 1.01020 21224 ft 455 kts 316°
2026-05-05 22:15 50.73389 0.97512 20663 ft 451 kts 316°
2026-05-05 22:15 50.75600 0.93995 20104 ft 446 kts 316°
2026-05-05 22:15 50.77747 0.90572 19526 ft 442 kts 316°
2026-05-05 22:15 50.79900 0.87136 19114 ft 432 kts 316°
2026-05-05 22:16 50.81950 0.83860 18966 ft 417 kts 316°
2026-05-05 22:16 50.83947 0.80661 18794 ft 403 kts 316°
2026-05-05 22:16 50.85889 0.77547 18614 ft 389 kts 316°
2026-05-05 22:16 50.87739 0.74582 18470 ft 376 kts 316°
2026-05-05 22:17 50.89542 0.71689 18353 ft 362 kts 316°
2026-05-05 22:17 50.91284 0.68886 18233 ft 349 kts 316°
2026-05-05 22:17 50.92934 0.66228 18143 ft 336 kts 316°
2026-05-05 22:17 50.94554 0.63618 18059 ft 323 kts 316°
2026-05-05 22:18 50.96100 0.61122 17974 ft 310 kts 316°
2026-05-05 22:18 50.97578 0.58737 17771 ft 303 kts 316°
2026-05-05 22:18 50.99053 0.56357 17135 ft 305 kts 316°
2026-05-05 22:18 51.00521 0.53982 16509 ft 303 kts 316°
2026-05-05 22:19 51.01983 0.51618 15869 ft 299 kts 316°
2026-05-05 22:19 51.03423 0.49282 15226 ft 296 kts 316°
2026-05-05 22:19 51.04856 0.46956 14601 ft 291 kts 316°
2026-05-05 22:19 51.06250 0.44693 14036 ft 286 kts 316°
2026-05-05 22:20 51.07637 0.42489 13528 ft 279 kts 317°
2026-05-05 22:20 51.09014 0.40394 13077 ft 271 kts 318°
2026-05-05 22:20 51.10345 0.38384 12615 ft 264 kts 318°
2026-05-05 22:20 51.11655 0.36399 12191 ft 255 kts 318°
2026-05-05 22:21 51.12921 0.34473 11806 ft 247 kts 317°
2026-05-05 22:21 51.14162 0.32581 11418 ft 246 kts 317°
2026-05-05 22:21 51.15392 0.30702 11031 ft 244 kts 317°
2026-05-05 22:21 51.16598 0.28856 10662 ft 242 kts 317°
2026-05-05 22:22 51.17804 0.27009 10285 ft 238 kts 317°
2026-05-05 22:22 51.18970 0.25220 9978 ft 225 kts 317°
2026-05-05 22:22 51.20059 0.23550 9652 ft 213 kts 317°
2026-05-05 22:22 51.21097 0.21956 9378 ft 199 kts 318°
2026-05-05 22:23 51.22068 0.20463 9148 ft 194 kts 318°
2026-05-05 22:23 51.23037 0.18979 8919 ft 193 kts 318°
2026-05-05 22:23 51.23995 0.17508 8682 ft 192 kts 318°
2026-05-05 22:23 51.24961 0.16023 8443 ft 191 kts 318°
2026-05-05 22:24 51.25918 0.14551 8207 ft 191 kts 318°
2026-05-05 22:24 51.26865 0.13092 7973 ft 190 kts 318°
2026-05-05 22:24 51.27815 0.11629 7736 ft 189 kts 318°
2026-05-05 22:24 51.28752 0.10182 7500 ft 189 kts 318°
2026-05-05 22:25 51.29700 0.08717 7262 ft 188 kts 318°
2026-05-05 22:25 51.30636 0.07272 7043 ft 187 kts 318°
2026-05-05 22:25 51.31564 0.05836 6990 ft 186 kts 318°
2026-05-05 22:25 51.32480 0.04361 6982 ft 188 kts 311°
2026-05-05 22:26 51.33090 0.02521 6980 ft 192 kts 290°
2026-05-05 22:26 51.33309 0.00401 6991 ft 194 kts 279°
2026-05-05 22:26 51.33414 -0.01666 6959 ft 178 kts 278°
2026-05-05 22:26 51.33500 -0.03584 6956 ft 172 kts 278°
2026-05-05 22:27 51.33592 -0.05495 6970 ft 172 kts 278°
2026-05-05 22:27 51.33688 -0.07379 6976 ft 171 kts 278°
2026-05-05 22:27 51.33787 -0.09293 6978 ft 171 kts 278°
2026-05-05 22:27 51.33888 -0.11181 6980 ft 171 kts 278°
2026-05-05 22:28 51.33987 -0.13056 6976 ft 171 kts 278°
2026-05-05 22:28 51.34089 -0.14955 6976 ft 172 kts 278°
2026-05-05 22:28 51.34190 -0.16855 6981 ft 172 kts 278°
2026-05-05 22:28 51.34293 -0.18770 6981 ft 172 kts 278°
2026-05-05 22:29 51.34395 -0.20675 6976 ft 171 kts 278°
2026-05-05 22:29 51.34495 -0.22565 6982 ft 172 kts 278°
2026-05-05 22:29 51.34597 -0.24467 6981 ft 172 kts 278°
2026-05-05 22:29 51.34698 -0.26376 6976 ft 172 kts 278°
2026-05-05 22:30 51.34799 -0.28280 6973 ft 172 kts 278°
2026-05-05 22:30 51.34900 -0.30195 6973 ft 173 kts 278°
2026-05-05 22:30 51.35000 -0.32097 6972 ft 173 kts 278°
2026-05-05 22:30 51.35102 -0.34033 6970 ft 173 kts 278°
2026-05-05 22:31 51.35200 -0.35925 6972 ft 172 kts 278°
2026-05-05 22:31 51.35300 -0.37836 6977 ft 175 kts 278°
2026-05-05 22:31 51.35409 -0.39884 7054 ft 194 kts 278°
2026-05-05 22:31 51.35522 -0.42055 7001 ft 197 kts 278°
2026-05-05 22:32 51.35633 -0.44246 6982 ft 197 kts 278°
2026-05-05 22:32 51.35743 -0.46423 6976 ft 197 kts 278°
2026-05-05 22:32 51.35854 -0.48598 6972 ft 197 kts 278°
2026-05-05 22:32 51.35966 -0.50804 6971 ft 197 kts 278°
2026-05-05 22:33 51.36075 -0.52965 6971 ft 196 kts 278°
2026-05-05 22:33 51.36184 -0.55153 6967 ft 196 kts 278°
2026-05-05 22:33 51.36294 -0.57316 6970 ft 197 kts 278°
2026-05-05 22:33 51.36404 -0.59492 6971 ft 197 kts 278°
2026-05-05 22:34 51.36513 -0.61680 6969 ft 198 kts 277°
2026-05-05 22:34 51.36622 -0.63864 6971 ft 198 kts 277°
2026-05-05 22:34 51.36730 -0.66079 6963 ft 197 kts 276°
2026-05-05 22:34 51.36822 -0.68210 6774 ft 193 kts 276°
2026-05-05 22:35 51.36911 -0.70375 6325 ft 196 kts 276°
2026-05-05 22:35 51.36998 -0.72526 5996 ft 194 kts 276°
2026-05-05 22:35 51.37161 -0.74635 5916 ft 189 kts 288°
2026-05-05 22:35 51.37732 -0.76490 5532 ft 186 kts 309°
2026-05-05 22:36 51.38589 -0.78030 5055 ft 188 kts 320°
2026-05-05 22:36 51.39728 -0.78890 4598 ft 182 kts 353°
2026-05-05 22:36 51.40984 -0.79004 4200 ft 179 kts
2026-05-05 22:36 51.42211 -0.78996 3839 ft 177 kts
2026-05-05 22:37 51.43424 -0.78942 3528 ft 172 kts 11°
2026-05-05 22:37 51.44470 -0.78325 3270 ft 151 kts 33°
2026-05-05 22:37 51.45263 -0.77269 3091 ft 149 kts 44°
2026-05-05 22:37 51.45973 -0.76037 3007 ft 150 kts 58°
2026-05-05 22:38 51.46261 -0.74442 2975 ft 150 kts 78°
2026-05-05 22:38 51.46354 -0.72792 2977 ft 149 kts 82°
2026-05-05 22:38 51.46424 -0.70556 2820 ft 149 kts 83°
2026-05-05 22:38 51.46455 -0.66986 2389 ft 147 kts 84°
2026-05-05 22:39 51.46457 -0.65342 2187 ft 147 kts 85°
2026-05-05 22:39 51.46457 -0.63699 1993 ft 146 kts 85°
2026-05-05 22:39 51.46456 -0.62082 1799 ft 146 kts 84°
2026-05-05 22:39 51.46456 -0.60458 1601 ft 145 kts 84°
2026-05-05 22:40 51.46457 -0.58843 1407 ft 145 kts 85°
2026-05-05 22:40 51.46459 -0.57248 1218 ft 144 kts 85°
2026-05-05 22:40 51.46462 -0.55625 1024 ft 144 kts 85°
2026-05-05 22:40 51.46465 -0.54033 833 ft 144 kts 86°
2026-05-05 22:41 51.46469 -0.52428 638 ft 143 kts 86°
2026-05-05 22:41 51.46473 -0.50848 449 ft 143 kts 87°
2026-05-05 22:41 51.46478 -0.49265 243 ft 140 kts 87°
2026-05-05 22:41 51.46484 -0.47763 104 ft 129 kts 92°
2026-05-05 22:42 51.46485 -0.46477 92 ft 96 kts 90°
2026-05-05 22:42 51.46495 -0.45924 92 ft 24 kts 73°